HULIANWANG DIGUI-84

导读

**HULIANWANG DIGUI-84卫星**是中国于2025年9月27日发射的低轨互联网卫星,属于中国卫星互联网星座建设的组成部分。该卫星进入预定轨道后,将与其他已发射的星网卫星组网,为全球用户提供高速、稳定的互联网接入服务,推动天地一体化网络体系建设,助力中国空间基础设施的完善与发展。

基本信息
目录编号:
65819
目录名称:
HULIANWANG DIGUI-84
国际标识:
2025-220C
轨道中心:
EARTH
卫星名称:
HULIANWANG DIGUI-84
卫星全名:
HULIANWANG DIGUI-84
卫星状态:
在轨 (已飞行303 天)
发射日期:
2025-09-27 UTC
国别 :
中国 (CN)
星等 :
--
轨道信息
数据来源 国际轨道数据 AOE轨道数据
星历时间 2026-07-27T19:48:30+0800
11小时前
查看轨道信息
2026-07-26T18:00:00+0800
1天前
查看轨道信息
半长轴 7546.06km 7546.058km
偏心率 0.0002277 0.0002341
轨道倾角 86.491° 86.491°
近地点辐角 95.981° 94.459°
升交点赤经 30.110° 30.474°
平近点角 264.158° 181.483°
近地点 1166.204km 1166.154km
远地点 1169.642km 1169.688km
周期 108.728分钟 108.728分钟
每日圈数 13.2441 13.244104
详细信息
使用方式:
暂无
2D轨道图
3D轨道图
轨道高度分析图
轨道倾角分析图
轨道综合分析图
查看轨道综合分析图